Weather Roundup
Issued by NWS Springfield, MO

Home | Current Version | Previous Version | Text Only | Print | Product List | Glossary On
Versions: 1 2 3 4 5 6 7 8 9 10 11 12 13 14 15 16 17 18 19 20 21 22 23 24 25 26 27 28 29 30 31 32 33 34 35 36 37 38 39 40 41 42 43 44 45 46 47 48 49 50
000
NZUS99 KSGF 220707
HRRSGF

HOURLY WEATHER
NATIONAL WEATHER SERVICE SPRINGFIELD MO
200 AM CDT SUN APR 22 2018

......SGF CWA......

CITY           SKY/WX    TMP DP  RH WIND       PRES   REMARKS
SPRINGFIELD    CLOUDY    55  47  74 NE8       30.00F
JOPLIN         LGT RAIN  52  51  97 NE7       30.02F
WEST PLAINS    LGT RAIN  58  44  60 E13       30.05F
ROLLA          CLOUDY    56  33  42 E12       30.10F
OSAGE BEACH    CLOUDY    58  37  45 NE12      30.08F
BRANSON        CLOUDY    54  46  76 E8        30.00F

......SURROUNDING SGF CWA......

CITY           SKY/WX    TMP DP  RH WIND       PRES   REMARKS
CHANUTE        LGT RAIN  48  46  93 N9        30.07F FOG
PARSONS        RAIN      48  47  96 N9        30.06F FOG
COFFEYVILLE    LGT RAIN  48  47  96 NW13      30.04F FOG
EMPORIA        LGT RAIN  45  43  93 N6        30.10F
GROVE OK       CLOUDY    54  52  94 CALM      30.01F
ROGERS AR      CLOUDY    52  51  97 NE6       29.98F
SILOAM SPRINGS CLOUDY    53  51  93 N5        29.97F
HARRISON AR    LGT RAIN  55  49  80 SE8       30.00F
NEAR YELLVILLE CLOUDY    58  50  75 E5        30.02S

......KANSAS AND MISSOURI......

CITY           SKY/WX    TMP DP  RH WIND       PRES   REMARKS
KANSAS CTY INT CLOUDY    53  30  41 NE12      30.13S
DOWNTOWN KC    CLOUDY    56  29  35 N9        30.11F
COLUMBIA       CLOUDY    56  32  40 E9        30.14R
SEDALIA        LGT RAIN  56  39  53 NE7       30.12F
ST JOSEPH      CLOUDY    54  30  40 E13       30.16S
ST LOUIS       CLOUDY    56  33  42 E15       30.16F
SPIRIT OF STL  CLOUDY    56  35  45 E8        30.15F
KIRKSVILLE     CLOUDY    52  31  44 NE12      30.20S
WICHITA        LGT RAIN  46  45  96 N12       30.11F
TOPEKA         LGT RAIN  51  36  56 NE7       30.13R
OLATHE         CLOUDY    53  30  41 NE9       30.09F

......TENNESSEE......

CITY           SKY/WX    TMP DP  RH WIND       PRES   REMARKS
MEMPHIS        LGT RAIN  62  58  86 E7        30.05S
NASHVILLE      CLOUDY    61  39  44 S6        30.17F

......ARKANSAS.......

CITY           SKY/WX    TMP DP  RH WIND       PRES   REMARKS
FAYETTEVILLE   CLOUDY    53  52  96 CALM      29.96F
FT SMITH       CLOUDY    57  55  93 NE7       29.96S
LITTLE ROCK    LGT RAIN  57  57 100 SE6       30.04F FOG

......OKLAHOMA.......

CITY           SKY/WX    TMP DP  RH WIND       PRES   REMARKS
TULSA          LGT RAIN  48  47  96 NW10      30.04F FOG
PONCA CITY     CLOUDY    46  43  89 N9        30.09F
MCALESTER      CLOUDY    51  50  96 NW10      30.02F
OKLAHOMA CITY  CLOUDY    46  44  93 N21G26    30.09F

......IOWA............

CITY           SKY/WX    TMP DP  RH WIND       PRES   REMARKS
DES MOINES     CLOUDY    50  32  50 E12       30.27F
QUAD CITIES    FAIR      49  22  34 E13       30.28F

......ILLINOIS........

CITY           SKY/WX    TMP DP  RH WIND       PRES   REMARKS
QUINCY         PTCLDY    52  30  43 E10       30.21R
CHICAGO        CLOUDY    44  21  40 NE7       30.35F




USA.gov is the U.S. government's official web portal to all federal, state and local government web resources and services.